Location: Caltech
(34.1382°N, 118.1253°W)
Time: 21:02:38
(UTC-07:00)

Iridium 59 - Visible Passes

Search period start: 19 August 2017 00:00
Search period end: 29 August 2017 00:00
Orbit: 776 x 779 km, 86.4° (Epoch: 18 August)

Date Brightness Start Highest point End Pass type
(mag) Time Alt. Az. Time Alt. Az. Time Alt. Az.
19 Aug 5.8 20:45:56 10° SSW 20:51:01 54° W 20:56:08 10° N visible
20 Aug 5.0 20:12:18 10° S 20:17:29 77° E 20:22:42 10° N visible
21 Aug 7.7 21:21:14 10° SW 21:24:54 19° W 21:28:34 10° NW visible
22 Aug 6.6 20:46:24 10° SSW 20:51:10 36° W 20:55:58 10° NNW visible
23 Aug 5.4 20:12:23 10° S 20:17:34 72° W 20:22:47 10° N visible
24 Aug 8.1 21:22:56 10° WSW 21:25:10 13° WNW 21:27:24 10° NW visible
25 Aug 7.4 20:47:09 10° SW 20:51:22 25° W 20:55:36 10° NNW visible
26 Aug 6.2 20:12:42 10° SSW 20:17:41 47° W 20:22:43 10° N visible
28 Aug 8.0 20:48:21 10° WSW 20:51:37 17° WNW 20:54:54 10° NW visible
